Regional Weather Roundup
Issued by NWS Newport/Morehead, NC

Current Version | Previous Version | Graphics & Text | Print | Product List | Glossary Off
Versions: 1 2 3 4 5 6 7 8 9 10 11 12 13 14 15 16 17 18 19 20 21 22 23 24 25 26 27 28 29 30 31 32 33 34 35 36 37 38 39 40 41 42 43 44 45 46 47 48 49 50

127
ASUS42 KMHX 191525
RWRMHX
WEATHER ROUNDUP FOR EASTERN NORTH CAROLINA
NATIONAL WEATHER SERVICE NEWPORT/MOREHEAD CITY NC
1000 AM EST THU JAN 19 2017

NOTE: "FAIR" INDICATES FEW OR NO CLOUDS BELOW 12,000 FEET
WITH NO SIGNIFICANT WEATHER AND/OR OBSTRUCTIONS TO VISIBILITY

NCZ015>017-031-032-045>047-102-103-191600-
NORTH COAST

CITY           SKY/WX    TMP DP  RH WIND       PRES   REMARKS
EDENTON        SUNNY     50  42  73 CALM      30.14R
ELIZABETH CITY MOSUNNY   47  41  80 NW6       30.13R
KITTY HAWK     NOT AVBL
MANTEO         MOSUNNY   48  45  89 N5        30.11R

$$

NCZ045>047-081-094-103-104-191600-
CENTRAL COAST

CITY           SKY/WX    TMP DP  RH WIND       PRES   REMARKS
FRISCO         SUNNY     51  45  79 VRB3      30.11R HAZE

$$

NCZ095-097-098-100-101-191600-
SOUTHERN COAST

CITY           SKY/WX    TMP DP  RH WIND       PRES   REMARKS
BEAUFORT       SUNNY     53  44  71 NE8       30.13R
CEDAR ISLAND   NOT AVBL
JACKSONVILLE   SUNNY     52  46  80 NE6       30.12S
PINEY ISLAND   SUNNY    N/A N/A N/A N6        30.13R
WILMINGTON     SUNNY     53  46  77 NE8       30.12S


$$

NCZ011>013-027>030-043-044-078>080-089-090>093-098-191600-
COASTAL PLAIN

CITY           SKY/WX    TMP DP  RH WIND       PRES   REMARKS
AHOSKIE          N/A     47  38  71 N3        30.16R
CLINTON        SUNNY     52  43  71 CALM      30.12F
ELIZABETHTOWN  SUNNY     51  42  71 CALM      30.12S
GOLDSBORO      SUNNY     50  44  78 NE6       30.12R
GREENVILLE     SUNNY     50  41  71 CALM      30.16R
HAVELOCK       SUNNY     52  45  77 NE5       30.14R
KENANSVILLE    SUNNY     50  45  81 N3        30.14R
KINSTON        SUNNY     50  43  76 E3        30.14S
NEW BERN       SUNNY     50  44  80 N5        30.15R
RICHLANDS      SUNNY     51  46  83 NE6       30.13S
ROCKY MOUNT    SUNNY     49  40  71 CALM      30.14S
WASHINGTON     SUNNY     49  42  74 E3          N/A
WHITEVILLE     SUNNY     54  43  66 E10       30.11S

$$

AMZ130-135-150-152-154-156-158-170-250-252-270-ANZ085-086-088-633-658-670-191600-
MARINE OBSERVATIONS

STATION/POSITION TIME  TEMP    WIND        PRES    WAVE   SWELL
                       AIR SEA DIR/SP/G            HT/PER HT/PER
                 (UTC) (F)     (DEG/KT/KT) (MB)    (FT/S) (FT/S)
CHESAPEAKE LIGHT NOT AVBL
64 E VA BEACH    1450   51 59   10/ 14/ 17 1018.2    5/ 8   3/ 8
DUCK             1500   45 45  340/  9/  9 1019.1
2 E DUCK         1500      45                N/A     4/ 7
OREGON INLET     1500   49 49  350/  8/ 10 1019.2
13E OREGON INLT  NOT AVBL
HATTERAS CG      1500   47 54  330/ 11/ 12 1019.6
DIAMOND BUOY     1450   52 75  360/ 16/ 19 1018.9    6/11   5/11
CAPE LOOKOUT     1500   50      10/ 10/ 12 1019.9
BEAUFORT LAB     1500   51 50   40/  8/ 11 1019.2
30 SE NEW RVR IN 1508   55 62   50/ 12/ 16 1019.7
30 SE NEW RVR IN 1513      62                N/A     4/ 6   2/11
27 SE WRIGHTSVLE 1508   57 69   50/ 12/ 16 1019.3
5 SE WRIGHTSVLE  1508   51      40/ 12/ 19 1019.5
225 S CAPE HAT   1450   67 71  350/ 10/ 12 1017.4    9/ 8   8/ 8
41 SE CHARLESTON 1450   69 71   70/ 12/ 14 1017.0    3/ 5   2/ 9

$$




USA.gov is the U.S. government's official web portal to all federal, state and local government web resources and services.